Location: Unnamed
(23.5608°S, 46.6833°W)
Time: 21:49:27
(UTC-03:00)

Tiros 4 - Visible Passes

Search period start: 06 December 2023 00:00
Search period end: 16 December 2023 00:00
Orbit: 683 x 793 km, 48.3° (Epoch: 06 December)

Date Brightness Start Highest point End Pass type
(mag) Time Alt. Az. Time Alt. Az. Time Alt. Az.
06 Dec 9.3 01:37:39 18° SSW 01:37:39 18° SSW 01:40:17 10° SSE visible
07 Dec 9.6 00:51:00 17° SSE 00:51:00 17° SSE 00:52:29 10° SSE visible
08 Dec 9.9 00:04:16 11° SSE 00:04:16 11° SSE 00:04:29 10° SSE visible
08 Dec 9.8 01:44:11 10° SSW 01:44:34 10° SSW 01:44:57 10° SSW visible
09 Dec 9.7 00:56:58 14° SSW 00:56:58 14° SSW 00:58:47 10° S visible
10 Dec 9.8 00:10:02 14° S 00:10:02 14° S 00:11:14 10° SSE visible
10 Dec 9.8 23:22:56 12° SSE 23:22:56 12° SSE 23:23:24 10° SSE visible
12 Dec 10.0 00:14:59 10° SSW 00:15:25 10° SSW 00:16:21 10° SSW visible
12 Dec 9.7 23:26:57 15° SSW 23:26:57 15° SSW 23:29:44 10° S visible
13 Dec 9.8 04:42:52 10° SSW 04:46:43 19° SSE 04:50:30 10° ESE visible
13 Dec 7.8 20:48:00 10° NNW 20:57:31 17° SE 20:58:47 10° SE visible
13 Dec 9.3 22:36:23 19° WSW 22:37:58 21° SW 22:42:09 10° SSE visible
14 Dec 10.0 03:55:23 10° S 03:58:01 13° SSE 04:00:37 10° ESE visible
14 Dec 7.4 20:00:09 10° NNW 20:05:04 39° NE 20:10:09 10° ESE visible
14 Dec 8.7 21:44:36 10° W 21:49:23 31° SW 21:54:18 10° SSE visible
15 Dec 8.1 19:12:47 10° N 19:16:53 23° NE 19:21:06 10° ESE visible
15 Dec 7.9 20:55:44 10° WNW 21:00:54 48° SW 21:06:15 10° SSE visible
15 Dec 10.2 22:45:06 10° SW 22:46:16 11° SSW 22:47:27 10° SSW visible
